[[{"header":{"parameterUnit":"m.s-1","parameterCategory":1,"la1":30.2991,"la2":30.254,"lo1":-89.0895,"lo2":-89.0444,"dy":0.0017,"dx":0.0017,"nx":28,"ny":28,"refTime":"2025-01-04T09:00:00:Z","depth":0,"parameterNumber":2,"parameterNumberName":"U-component_of_WINDS"},"data":[0,0,0,0,0,0,0,0,0,0,0,0,0,0,0,0,0,0,0,0,0,0,0,0,0,0,0,0,0,0,0,0,0,0,0,0,0,0,0,0,0,0,0,0,0,0,0,0,0,0,0,0,0,0,0,0,0,0,-3.7353,-3.7355,0,-3.7504,-3.7505,-3.7507,-3.7564,-3.7563,-3.7563,-3.7562,-3.7718,-3.7723,-3.7727,0,0,0,0,0,0,0,0,0,0,0,0,0,-3.7117,-3.7121,-3.7353,-3.7355,-3.7357,-3.7503,-3.7506,-3.7508,-3.7564,-3.7563,-3.7563,-3.7562,-3.7717,-3.7722,-3.7727,0,0,0,0,0,0,0,0,0,0,0,0,0,-3.7239,-3.7123,-3.7353,-3.7403,-3.7409,-3.7503,-3.7506,-3.7508,-3.7564,-3.7563,-3.7562,-3.7562,-3.7715,-3.7721,-3.7728,-3.7785,0,0,-3.7749,-3.7752,0,0,0,0,0,0,0,0,-3.7232,-3.7248,-3.7393,-3.7399,-3.7406,-3.7514,-3.748,-3.7601,-3.7564,-3.7505,-3.7562,-3.7561,-3.7651,-3.7663,-3.7693,-3.7792,-3.7799,-3.775,-3.7754,-3.7757,-3.7759,0,0,0,0,0,0,0,-3.7223,-3.7241,-3.7413,-3.7396,-3.7403,-3.7418,-3.7435,-3.7503,-3.758,-3.751,-3.7514,-3.7531,-3.7654,-3.7686,-3.7697,-3.7801,-3.775,-3.7756,-3.776,-3.7763,-3.7955,-3.7956,0,0,0,0,0,0,-3.7206,-3.7234,-3.7408,-3.7417,-3.7316,-3.7423,-3.7442,-3.748,-3.758,-3.7594,-3.7532,-3.7534,-3.7675,-3.7689,-3.7703,-3.7776,-3.7757,-3.7763,-3.7767,-3.7954,-3.7956,-3.7957,0,0,0,0,0,0,-3.7201,-3.7221,-3.7402,-3.7327,-3.7351,-3.7428,-3.7471,-3.7484,-3.7515,-3.7596,-3.761,-3.755,-3.7675,-3.7693,-3.7764,-3.7782,-3.7767,-3.7773,-3.7953,-3.7955,-3.7956,-3.7921,0,0,0,0,0,0,-3.7194,-3.7219,-3.7241,-3.7327,-3.7355,-3.746,-3.7472,-3.7487,-3.7527,-3.753,-3.7617,-3.763,-3.7676,-3.7753,-3.7771,-3.7791,-3.7778,-3.7952,-3.7954,-3.7956,-3.7921,-3.7921,-3.7922,0,0,0,0,0,-3.7186,-3.7225,-3.7241,-3.7262,-3.7383,-3.7461,-3.7477,-3.7527,-3.7528,-3.7551,-3.7603,-3.7628,-3.7777,-3.776,-3.778,-3.7803,-3.7951,-3.7953,-3.7956,-3.7921,-3.7921,-3.7922,0,0,0,0,0,0,-3.7139,-3.7237,-3.7256,-3.7325,-3.7384,-3.747,-3.75,-3.7526,-3.7586,-3.7587,-3.7648,-3.7667,-3.7734,-3.7776,-3.7755,-3.7863,-3.7866,-3.7872,-3.7833,-3.7834,-3.7834,-3.7822,-3.7784,0,0,0,0,0,-3.7137,-3.7191,-3.7274,-3.7327,-3.7355,-3.7423,-3.7458,-3.7492,-3.7556,-3.7581,-3.7639,-3.77,-3.7761,-3.78,-3.7861,-3.7928,-3.7948,-3.7954,-3.7954,-3.7954,-3.7958,-3.7997,-3.8001,-3.7964,-3.7964,-3.7964,0,0,-3.7133,-3.7193,-3.7224,-3.7319,-3.7369,-3.7424,-3.7443,-3.7501,-3.7543,-3.7591,-3.7661,-3.7705,-3.7778,-3.7847,-3.7881,-3.7885,-3.7973,-3.7956,-3.7956,-3.796,-3.8,-3.8003,-3.8006,-3.7966,-3.7965,-3.7965,0,0,-3.7154,-3.7205,-3.7254,-3.7304,-3.7378,-3.7423,-3.7435,-3.7518,-3.7549,-3.762,-3.7657,-3.7709,-3.7812,-3.7863,-3.7902,-3.7943,-3.7968,-3.7962,-3.7962,-3.8,-3.8002,-3.8005,-3.802,-3.8024,-3.7966,-3.7966,-3.7966,0,-3.7139,-3.7223,-3.7276,-3.7332,-3.7373,-3.7419,-3.747,-3.7516,-3.7607,-3.7634,-3.7637,-3.7769,-3.7821,-3.7903,-3.7913,-3.7944,-3.796,-3.7951,-3.7998,-3.8001,-3.8005,-3.8019,-3.8024,-3.7965,-3.7965,-3.7965,-3.7965,0,-3.7202,-3.7259,-3.729,-3.7376,-3.7421,-3.7474,-3.7537,-3.7576,-3.7606,-3.7651,-3.7724,-3.7789,-3.7863,-3.7886,-3.7916,-3.7972,-3.7972,-3.7986,-3.7989,-3.8006,-3.802,-3.8026,-3.7962,-3.7963,-3.7963,-3.7964,0,0,-3.7196,-3.7311,-3.7322,-3.7362,-3.7448,-3.7494,-3.755,-3.7623,-3.7655,-3.7717,-3.7766,-3.7853,-3.7866,-3.7911,-3.7948,-3.7981,-3.8009,-3.799,-3.7993,-3.7991,-3.8075,-3.8064,-3.8069,-3.8027,-3.8028,-3.8029,-3.8069,0,-3.7227,-3.7328,-3.7378,-3.7457,-3.7511,-3.7556,-3.7605,-3.7664,-3.7707,-3.7761,-3.781,-3.787,-3.7883,-3.791,-3.7945,-3.7998,-3.8027,-3.7996,-3.8073,-3.8075,-3.8052,-3.8077,-3.8065,-3.8099,-3.8075,-3.8076,-3.8077,0,-3.7277,-3.7338,-3.7422,-3.7503,-3.7527,-3.757,-3.7641,-3.7691,-3.7759,-3.7789,-3.7839,-3.7875,-3.7937,-3.7937,-3.8023,-3.8001,-3.8036,-3.8067,-3.8069,-3.8078,-3.8076,-3.8085,-3.8112,-3.8116,-3.8086,-3.8086,-3.8085,0,-3.7264,-3.7367,-3.7431,-3.7464,-3.7559,-3.7588,-3.763,-3.7697,-3.7738,-3.7801,-3.7828,-3.7897,-3.7934,-3.7988,-3.8042,-3.8037,-3.8123,-3.8128,-3.8149,-3.8148,-3.8164,-3.8162,-3.8196,-3.8188,-3.8188,-3.8188,-3.8188,0,-3.7293,-3.7343,-3.7426,-3.7465,-3.7522,-3.758,-3.7636,-3.7681,-3.7741,-3.779,-3.7834,-3.788,-3.7949,-3.8004,-3.8047,-3.8112,-3.8129,-3.8155,-3.8166,-3.815,-3.8147,-3.8173,-3.8172,-3.8189,-3.8189,-3.8189,-3.8188,0,-3.7288,-3.7345,-3.7417,-3.7502,-3.7525,-3.7563,-3.7637,-3.7677,-3.7723,-3.7785,-3.7803,-3.7876,-3.7943,-3.8003,-3.8092,-3.8121,-3.8187,-3.82,-3.8163,-3.8169,-3.8187,-3.8184,-3.8237,-3.8248,-3.8233,-3.8233,-3.8233,0,-3.7302,-3.7341,-3.743,-3.7466,-3.7506,-3.7564,-3.7605,-3.7665,-3.7706,-3.7788,-3.7818,-3.7888,-3.7947,-3.8052,-3.8113,-3.8182,-3.8197,-3.8211,-3.8208,-3.8191,-3.8197,-3.8193,-3.8198,-3.821,-3.821,-3.821,-3.821,0,-3.7321,-3.7348,-3.7406,-3.7474,-3.7522,-3.7579,-3.7637,-3.7664,-3.7735,-3.7779,-3.7848,-3.7893,-3.7984,-3.8053,-3.8128,-3.8173,-3.8203,-3.8211,-3.8219,-3.8204,-3.818,-3.8193,-3.8161,-3.8209,-3.8209,-3.8209,-3.8209,-3.8209,-3.7326,-3.7363,-3.7431,-3.7495,-3.7544,-3.7598,-3.764,-3.7691,-3.7749,-3.7826,-3.7859,-3.7928,-3.7997,-3.8101,-3.8145,-3.8202,-3.8207,-3.822,-3.8223,-3.8225,-3.8222,-3.8172,-3.8216,-3.8216,-3.8216,-3.8216,-3.8216,0,-3.7347,-3.7394,-3.7451,-3.7531,-3.7581,-3.7605,-3.7671,-3.7711,-3.7771,-3.7833,-3.789,-3.7969,-3.8036,-3.8103,-3.8174,-3.8206,-3.8222,-3.8223,-3.8221,-3.8231,-3.8213,-3.8198,-3.8209,-3.8209,-3.8209,-3.8209,-3.8209,-3.8209,-3.7364,-3.7428,-3.7463,-3.7552,-3.7599,-3.7666,-3.7702,-3.7752,-3.7801,-3.7887,-3.7942,-3.7986,-3.805,-3.8126,-3.819,-3.8208,-3.8232,-3.8228,-3.825,-3.8232,-3.8232,-3.8232,-3.8218,-3.8233,-3.8233,-3.8264,-3.8264,-3.8264]},{"header":{"parameterUnit":"m.s-1","parameterCategory":1,"la1":30.2991,"la2":30.254,"lo1":-89.0895,"lo2":-89.0444,"dy":0.0017,"dx":0.0017,"nx":28,"ny":28,"refTime":"2025-01-04T09:00:00:Z","depth":0,"parameterNumber":3,"parameterNumberName":"V-component_of_WINDS"},"data":[0,0,0,0,0,0,0,0,0,0,0,0,0,0,0,0,0,0,0,0,0,0,0,0,0,0,0,0,0,0,0,0,0,0,0,0,0,0,0,0,0,0,0,0,0,0,0,0,0,0,0,0,0,0,0,0,0,0,4.2136,4.2137,0,4.2254,4.2255,4.2257,4.2273,4.2272,4.2271,4.227,4.2391,4.2395,4.24,0,0,0,0,0,0,0,0,0,0,0,0,0,4.1928,4.1932,4.2136,4.2137,4.2139,4.2254,4.2255,4.2257,4.2274,4.2272,4.2271,4.227,4.239,4.2395,4.24,0,0,0,0,0,0,0,0,0,0,0,0,0,4.203,4.1933,4.2136,4.2161,4.2164,4.2254,4.2256,4.2258,4.2274,4.2272,4.2271,4.2269,4.2388,4.2394,4.2401,4.2473,0,0,4.242,4.2423,0,0,0,0,0,0,0,0,4.2024,4.2037,4.2156,4.2159,4.2163,4.2247,4.2227,4.233,4.2274,4.2232,4.227,4.2268,4.2345,4.2355,4.238,4.2478,4.2484,4.2421,4.2425,4.2427,4.2429,0,0,0,0,0,0,0,4.2017,4.2032,4.2183,4.2158,4.2162,4.2168,4.218,4.2246,4.2296,4.2236,4.2237,4.2251,4.2347,4.2374,4.2383,4.2485,4.2421,4.2426,4.243,4.2433,4.2654,4.2656,0,0,0,0,0,0,4.2005,4.2026,4.2179,4.2186,4.2088,4.2173,4.2187,4.2222,4.2296,4.2305,4.2252,4.2252,4.2364,4.2376,4.2388,4.2481,4.2427,4.2433,4.2437,4.2652,4.2654,4.2657,0,0,0,0,0,0,4.2,4.2018,4.2174,4.2107,4.2127,4.2178,4.2218,4.2225,4.2253,4.2308,4.2317,4.2271,4.2363,4.2379,4.2453,4.2485,4.2436,4.2442,4.2649,4.2653,4.2656,4.2664,0,0,0,0,0,0,4.1994,4.2017,4.2043,4.2107,4.2131,4.2236,4.2219,4.2229,4.2264,4.2264,4.2328,4.2337,4.2363,4.2443,4.2459,4.2493,4.2447,4.2647,4.2651,4.2655,4.2661,4.2667,4.2672,0,0,0,0,0,4.1987,4.204,4.2045,4.2063,4.2165,4.2238,4.2251,4.228,4.2266,4.2295,4.2331,4.2335,4.2478,4.2451,4.2469,4.2505,4.2645,4.265,4.2654,4.2659,4.2666,4.2672,0,0,0,0,0,0,4.1978,4.2049,4.2055,4.213,4.2178,4.2241,4.2277,4.2286,4.2339,4.2336,4.237,4.2384,4.2458,4.2488,4.2456,4.2581,4.2561,4.2569,4.2558,4.2565,4.2571,4.2563,4.2452,0,0,0,0,0,4.1985,4.2037,4.2097,4.2158,4.2182,4.2225,4.2258,4.2276,4.2327,4.2347,4.2389,4.2439,4.2496,4.2532,4.2586,4.2666,4.2682,4.27,4.2705,4.2709,4.2717,4.2766,4.2775,4.2672,4.2672,4.2672,0,0,4.1999,4.2045,4.2076,4.2157,4.2196,4.2252,4.2242,4.23,4.2342,4.2356,4.243,4.2462,4.252,4.2598,4.2635,4.2626,4.2749,4.2715,4.2718,4.2724,4.2771,4.2781,4.279,4.2675,4.2674,4.2674,0,0,4.2055,4.2093,4.215,4.2191,4.2251,4.228,4.2294,4.2356,4.2379,4.2453,4.2466,4.2517,4.2613,4.2655,4.2689,4.2765,4.2772,4.2782,4.2811,4.2858,4.2866,4.2874,4.2904,4.2915,4.2789,4.2789,4.2789,0,4.2066,4.2149,4.2178,4.2237,4.2275,4.2291,4.2351,4.2388,4.2463,4.2489,4.2478,4.2602,4.2642,4.2732,4.2751,4.2777,4.2796,4.2775,4.2862,4.287,4.2878,4.2908,4.2919,4.279,4.279,4.2789,4.2789,0,4.2161,4.2219,4.2258,4.2332,4.2373,4.2432,4.2472,4.251,4.2526,4.2557,4.2635,4.2683,4.2751,4.2773,4.2787,4.2867,4.286,4.2855,4.2836,4.2888,4.2917,4.2928,4.2791,4.2791,4.279,4.279,0,0,4.2214,4.2305,4.2319,4.2355,4.2424,4.247,4.2531,4.2597,4.2631,4.2683,4.2737,4.282,4.2817,4.2856,4.2876,4.2917,4.2979,4.2908,4.291,4.2922,4.3074,4.3079,4.3091,4.2984,4.2986,4.2988,4.307,0,4.228,4.2389,4.2419,4.2512,4.2568,4.2586,4.264,4.2689,4.272,4.2774,4.2808,4.2868,4.2858,4.2882,4.2923,4.2962,4.301,4.2956,4.3037,4.3039,4.3024,4.3106,4.311,4.3186,4.3081,4.3083,4.3084,0,4.2371,4.2427,4.2526,4.2592,4.2616,4.2664,4.273,4.2779,4.2837,4.2857,4.2902,4.292,4.2986,4.2963,4.3057,4.302,4.3055,4.3079,4.3083,4.3093,4.3066,4.3121,4.321,4.3222,4.3101,4.31,4.3099,0,4.2404,4.2503,4.2576,4.2606,4.2683,4.2717,4.2751,4.2807,4.2847,4.2904,4.2931,4.2994,4.303,4.308,4.3116,4.3094,4.3208,4.3187,4.323,4.3229,4.3254,4.3252,4.3353,4.3272,4.3272,4.3271,4.3271,0,4.2476,4.2537,4.2593,4.2638,4.2708,4.2742,4.2811,4.2846,4.2896,4.295,4.2969,4.3019,4.3061,4.3118,4.3146,4.3223,4.3237,4.3258,4.3265,4.3258,4.3256,4.3282,4.3279,4.3274,4.3274,4.3273,4.3273,0,4.2525,4.2564,4.2646,4.2714,4.2733,4.2781,4.284,4.2886,4.2919,4.2988,4.3006,4.3058,4.3126,4.3166,4.3251,4.327,4.3356,4.3359,4.3337,4.3341,4.3383,4.338,4.3506,4.3526,4.3429,4.3429,4.343,0,4.257,4.2617,4.2691,4.2729,4.2764,4.2824,4.2865,4.2902,4.2944,4.3015,4.3054,4.3123,4.3181,4.329,4.3336,4.3403,4.341,4.345,4.342,4.3413,4.3415,4.3413,4.342,4.3455,4.3456,4.3457,4.3457,0,4.2646,4.2664,4.2722,4.2789,4.2838,4.2892,4.2945,4.2975,4.3021,4.3068,4.3139,4.3184,4.3273,4.3344,4.3415,4.3451,4.3464,4.3466,4.348,4.3475,4.3462,4.3473,4.3354,4.3463,4.3463,4.3462,4.3462,4.3462,4.2697,4.2742,4.2802,4.2867,4.2912,4.2962,4.301,4.305,4.311,4.3185,4.3203,4.3279,4.3339,4.3436,4.3475,4.3536,4.3529,4.3549,4.3554,4.3559,4.3563,4.345,4.3548,4.3548,4.3548,4.3548,4.3548,0,4.2778,4.2818,4.2878,4.2953,4.3006,4.3012,4.3073,4.3117,4.3183,4.3238,4.3295,4.3379,4.3448,4.35,4.3572,4.3611,4.3618,4.3628,4.3627,4.3637,4.3562,4.3545,4.3621,4.3621,4.3621,4.3621,4.3621,4.3621,4.2826,4.2904,4.2929,4.3031,4.307,4.3145,4.318,4.3228,4.3272,4.3364,4.3422,4.3456,4.3512,4.3588,4.3653,4.3667,4.3693,4.3703,4.3719,4.3649,4.3641,4.3634,4.3617,4.3708,4.3708,4.3788,4.3789,4.379]}]]